This demonstration page uses our WeatherBlox Daily Observations layout. Learn more.

Left ArrowRight Arrow

39.01783, -85.05884

Hourly Observations for May 1, 2020

Temp ( °F °C ) Dew Point ( °F °C ) Humidity (%) Winds ( mph kmh ) Pressure ( in mb ) Visibility ( mi km ) Precip ( " mm )
12:26 am 00:26 Cloudy 47 8.3 39 3.9 74 74 W 13 20 29.85 1011 10 16 0.00 0.00
12:52 am 00:52 Cloudy 48 8.9 39 3.9 71 71 WNW 13 20 29.83 1010 10 16 0.00 0.00
1:44 am 01:44 Cloudy 49 9.4 38 3.3 66 66 WNW 14 22 29.85 1011 10 16 0.00 0.00
1:52 am 01:52 Cloudy 48 8.9 38 3.3 68 68 WNW 12 19 29.83 1010 10 16 0.00 0.00
2:12 am 02:12 Cloudy 48 8.9 38 3.3 68 68 WNW 12 19 29.85 1011 10 16 0.00 0.00
2:52 am 02:52 Cloudy 48 8.9 38 3.3 68 68 NW 13 20 29.84 1011 10 16 0.00 0.00
3:52 am 03:52 Cloudy 47 8.3 38 3.3 71 71 NW 13 20 29.86 1011 10 16 0.00 0.00
4:52 am 04:52 Cloudy 47 8.3 38 3.3 71 71 WNW 10 17 29.88 1012 10 16 0.00 0.00
5:52 am 05:52 Cloudy 46 7.8 38 3.3 73 73 NW 9 15 29.90 1013 10 16 0.00 0.00
6:52 am 06:52 Cloudy 46 7.8 38 3.3 73 73 WNW 10 17 29.92 1013 10 16 0.00 0.00
7:52 am 07:52 Cloudy 46 7.8 39 3.9 77 77 WNW 13 20 29.96 1015 10 16 0.00 0.00
8:46 am 08:46 Cloudy 46 8 39 4 76 76 NW 12 19 30.01 1016 10 16 0.00 0.00
8:52 am 08:52 Cloudy 47 8.3 39 3.9 74 74 NW 12 19 29.99 1016 10 16 0.00 0.00
9:35 am 09:35 Cloudy 48 8.9 40 4.4 74 74 NNW 13 20 30.02 1017 10 16 0.00 0.00
9:52 am 09:52 Cloudy 48 8.9 40 4.4 74 74 NNW 12 19 30.02 1017 10 16 0.00 0.00
10:52 am 10:52 Cloudy 49 9.4 40 4.4 71 71 NW 9 15 30.04 1017 10 16 0.00 0.00
11:52 am 11:52 Mostly Cloudy 51 10.6 41 5 69 69 W 3 6 30.06 1018 10 16 0.00 0.00
12:41 pm 12:41 Mostly Cloudy 56 13.3 43 6.1 62 62 VRB 6 9 30.07 1018 10 16 0.00 0.00
12:52 pm 12:52 Partly Cloudy 56 13.3 42 5.6 60 60 NNW 5 7 30.06 1018 10 16 0.00 0.00
1:52 pm 13:52 Mostly Sunny 59 15 42 5.6 54 54 Calm 30.03 1017 10 16 0.00 0.00
2:52 pm 14:52 Mostly Sunny 64 17.8 43 6.1 46 46 W 10 17 30.03 1017 10 16 0.00 0.00
3:52 pm 15:52 Mostly Sunny 66 18.9 43 6.1 43 43 W 7 11 30.03 1017 10 16 0.00 0.00
4:52 pm 16:52 Mostly Sunny 67 19.4 39 3.9 36 36 NW 7 11 30.01 1016 10 16 0.00 0.00
5:52 pm 17:52 Mostly Sunny 68 20 38 3.3 33 33 Calm 30.01 1016 10 16 0.00 0.00
6:52 pm 18:52 Mostly Sunny 66 18.9 40 4.4 39 39 WSW 7 11 30.02 1017 10 16 0.00 0.00
7:52 pm 19:52 Mostly Cloudy 62 16.7 41 5 46 46 W 8 13 30.04 1017 10 16 0.00 0.00
8:52 pm 20:52 Cloudy 60 15.6 41 5 50 50 W 6 9 30.06 1018 10 16 0.00 0.00
9:52 pm 21:52 Cloudy 59 15 42 5.6 54 54 W 5 7 30.07 1018 10 16 0.00 0.00
10:52 pm 22:52 Cloudy 59 15 42 5.6 54 54 Calm 30.06 1018 10 16 0.00 0.00
11:52 pm 23:52 Mostly Cloudy 56 13.3 43 6.1 62 62 SSE 3 6 30.05 1018 10 16 0.00 0.00

Powered by AerisWeather